    Observer details:
    046 Klet.  Observers J. Ticha, M. Tichy.  0.57-m f/5.2 reflector + CCD.
    104 San Marcello Pistoiese.  Observers L. Tesi, A. Boattini, M. Tombelli.
        Measurers G. Forti, L. Tesi, A. Boattini, M. Tombelli.  0.40-m f/5
        reflector + CCD.
    118 Modra.  Observers L. Kornos, P. Koleny.  0.6-m f/5.5 reflector + CCD.
    151 Eschenberg Observatory, Winterthur.  Observer M. Griesser.  0.25-m f/8.0
        reflector + CCD.
    461 JATE Asteroid Survey, Piszkesteto Stn. (Konkoly).  Observers K. Sarneczky,
        L. Kiss, K. Sziladi.  0.60-m Schmidt + CCD.
    557 Ondrejov.  Observers L. Sarounova, P. Kusnirak.  0.65-m f/3.6 reflector
        + CCD.
    587 Sormano.  Observers P. Sicoli, P. Chiavenna.  0.5-m reflector + CCD.
    595 Farra d'Isonzo.  Observers G. Lombardi, E. Pettarin.  0.40-m f/4.5
        reflector + CCD.
    620 Observatorio Astronomico de Mallorca.  Observers A. Lopez, R. Pacheco.
        0.30-m f/3.3 Schmidt-Cassegrain + CCD.
    649 Powell Observatory, Louisburg.  Observers D. Young, J. Alburty.  Measurers
        M. Kirk, R. Fredrick.  0.30-m Schmidt-Cassegrain + CCD.
    670 Camarillo.  Observer J. E. Rogers.  0.30-m f/6.7 Helin Telescope + CCD.
    704 Lincoln Laboratory ETS, New Mexico.  Observers M. Blythe, F. Shelly,
        M. Bezpalko, M. Elowitz, R. Huber.  Measurers J. Stuart, H. Viggh,
        R. Sayer, J. B. Evans.  1.0-m f/2.15 reflector + CCD.
    713 Thornton.  Observer R. A. Koff.  0.20-m f/10 Schmidt-Cassegrain + CCD.
    734 Farpoint Observatory.  Observers G. Hug, G. E. Bell.  0.30-m
        Schmidt-Cassegrain + CCD.
    747 Baton Rouge Observatory.  Observer W. R. Cooney, Jr.  0.51-m f/8.4
        reflector + CCD.
    750 Hobbs Observatory, Fall Creek.  Observer R. Elliott.  0.3-m f/3.3 reflector
        + CCD.
    858 Tebbutt Observatory, Edgewood.  Observer F. B. Zoltowski.  0.3-m f/3.3
        Schmidt-Cassegrain + CCD.
    900 Moriyama.  Observer Y. Ikari.  0.25-m f/6.3 reflector + CCD.
    
    Orbital elements:
    2000 ET70                                                            PHA 0.019D
    Epoch 2000 Feb. 26.0 TT = JDT 2451600.5                 Williams
    M 122.44889              (2000.0)            P               Q
    n   1.06974132     Peri.   46.36885     +0.92711510     -0.32732472
    a   0.9468551      Node   331.23945     +0.12481033     +0.72888879
    e   0.1233546      Incl.   22.29378     +0.35338361     +0.60131494
    P   0.92           H   18.2           G   0.15
    From 85 observations 2000 Mar. 8-12.
    
    Ephemeris:
    2000 ET70                a,e,i = 0.95, 0.12, 22                  q = 0.8301
    Date    TT    R. A. (2000) Decl.     Delta      r     Elong.  Phase     V
    2000 03 07    05 59.70   -00 27.8    0.148    1.033   102.0    69.9    16.6
    2000 03 12    06 13.04   -07 24.5    0.176    1.040   100.3    70.1    17.0
    2000 03 17    06 23.95   -12 21.8    0.206    1.046    98.5    70.3    17.3
    2000 03 22    06 33.37   -16 02.3    0.236    1.050    96.7    70.4    17.6
    2000 03 27    06 41.87   -18 51.8    0.265    1.055    95.0    70.5    17.9
    2000 04 01    06 49.82   -21 06.4    0.294    1.058    93.3    70.6    18.1
    2000 04 06    06 57.48   -22 56.7    0.322    1.061    91.8    70.6    18.3
    2000 04 11    07 04.98   -24 30.0    0.348    1.062    90.3    70.6    18.5
    2000 04 16    07 12.40   -25 51.2    0.373    1.063    88.8    70.7    18.7
    2000 04 21    07 19.79   -27 03.5    0.396    1.064    87.5    70.7    18.8
    2000 04 26    07 27.22   -28 09.1    0.417    1.063    86.2    70.8    18.9
    2000 05 01    07 34.74   -29 09.7    0.435    1.062    84.9    71.0    19.0
    2000 05 06    07 42.41   -30 06.8    0.452    1.059    83.7    71.2    19.1
    2000 05 11    07 50.24   -31 01.5    0.466    1.056    82.6    71.5    19.2
    2000 05 16    07 58.25   -31 54.5    0.477    1.053    81.5    71.8    19.2
    2000 05 21    08 06.44   -32 46.2    0.486    1.048    80.5    72.3    19.3
    2000 05 26    08 14.87   -33 36.7    0.492    1.043    79.5    72.8    19.3
    2000 05 31    08 23.58   -34 26.1    0.496    1.037    78.6    73.4    19.3
    2000 06 05    08 32.60   -35 14.7    0.497    1.030    77.7    74.2    19.3
    2000 06 10    08 41.98   -36 02.3    0.495    1.023    76.8    75.1    19.3
    2000 06 15    08 51.74   -36 48.6    0.490    1.015    75.9    76.1    19.3
    2000 06 20    09 01.92   -37 32.8    0.482    1.006    75.1    77.3    19.3
    2000 06 25    09 12.61   -38 13.8    0.472    0.997    74.2    78.7    19.3
    2000 06 30    09 23.88   -38 50.5    0.459    0.988    73.3    80.3    19.3
    2000 07 05    09 35.84   -39 21.6    0.443    0.978    72.3    82.1    19.3
    2000 07 10    09 48.55   -39 45.0    0.425    0.967    71.2    84.2    19.2
    2000 07 15    10 02.09   -39 57.3    0.405    0.957    70.0    86.6    19.2
    2000 07 20    10 16.55   -39 54.4    0.382    0.946    68.6    89.4    19.1
    2000 07 25    10 32.03   -39 30.5    0.358    0.935    66.9    92.5    19.1
    2000 07 30    10 48.60   -38 38.2    0.333    0.924    64.8    96.2    19.1
    2000 08 04    11 06.26   -37 07.6    0.306    0.913    62.2   100.5    19.1
    
    Gareth V. Williams           (C) Copyright 2000 MPC           M.P.E.C. 2000-E54
    

    Read MPEC 2000-E53 Read MPEC 2000-E55


    MPEC number:

    Enter an MPEC number in one of the following forms:

    • 1997-B01 (the full form)
    • J97B01 (the packed version of the full form)
    • B01 (the abbreviated form)